Simultaneous Nadir Overpasses (SNOs) Predictions

Prediction of SNOs between AQUA and NPP Satellite Orbit:

Table of predicted SNOs for the next 14.0 days since TLE Epoch: 4/10/2015
Index Date (AQUA) Time (AQUA) Lat,Lon (AQUA) SZA (AQUA ) Date (NPP) Time (NPP) Lat,Lon (NPP) SZA (NPP ) Distance(km) Time Diff (sec)
1 04/12/2015 03:07:30 67.76, -2.21 97.56 04/12/2015 03:06:35 67.77, -2.17 97.60 1.64 55
2 04/12/2015 03:56:02 -70.87, 169.55 85.62 04/12/2015 03:56:23 -70.87, 169.54 85.64 0.34 21
3 04/14/2015 19:23:45 68.68, 114.75 95.66 04/14/2015 19:23:09 68.68, 114.76 95.69 0.63 36
4 04/14/2015 20:12:21 -71.54, -73.51 87.30 04/14/2015 20:13:01 -71.54, -73.53 87.34 0.84 40
5 04/17/2015 11:40:08 69.10,-128.84 94.27 04/17/2015 11:39:52 69.09,-128.90 94.30 2.35 16
6 04/17/2015 12:28:31 -72.65, 44.32 89.43 04/17/2015 12:29:30 -72.65, 44.37 89.50 1.75 59
7 04/20/2015 03:07:49 -67.11, 177.04 84.66 04/20/2015 03:06:36 -67.12, 177.07 84.60 1.58 73
8 04/20/2015 03:56:21 70.04, -11.70 92.37 04/20/2015 03:56:25 70.03, -11.76 92.39 2.49 4
9 04/20/2015 04:41:11 -81.70,-146.76 103.27 04/20/2015 04:42:25 -81.26,-146.40 103.46 48.94 74
10 04/22/2015 19:24:07 -67.69, -66.44 86.16 04/22/2015 19:23:15 -67.69, -66.48 86.09 1.45 52




NCC Satellite Simultaneous Nadir Overpasses (SNOs) Prediction Service
